Location: *
(45.8589°N, 4.7139°E)
Time: 11:06:56
(UTC+00:00)

Cosmos 1570 Rocket - Pass Details

Date: 09 April 2020
Orbit: 764 x 787 km, 74.1° (Epoch: 03 June)

Event Time Altitude Azimuth Distance (km) Brightness Sun altitude
Rises 20:46:13 0° 340° (NNW) 3,291 8.3 -23.3°
Reaches altitude 10° 20:48:38 10° 342° (NNW) 2,356 7.3 -23.6°
Maximum altitude 20:53:59 70° 67° (ENE) 834 4.0 -24.3°
Enters shadow 20:54:29 65° 105° (ESE) 859 3.9 -24.4°
